Tracking 34794 objects as of 19-Jul-2026
HD Live streaming from Space Station
objects crossing your sky now

USA 425

Track USA 425 now!
10-day predictions


NORAD ID: 61648
Int'l Code: 2024-192E
Perigee: 582.1 km
Apogee: 586.3 km
Inclination: 70.0 °
Period: 96.2 minutes
Semi major axis: 6955 km
RCS: Unknown
Launch date: October 24, 2024
Source: United States (US)
Launch site: AIR FORCE WESTERN TEST RANGE (AFWTR)
Your satellite tracking list
Your tracking list is empty




NASA's NSSDC Master Catalog

Two Line Element Set (TLE):
1 61648U 24192E   26175.01939484 0.00000000  00000-0  00000-0 0    05
2 61648  70.0230 249.8900 0003000   6.7021 353.2979 14.96713490    02
Source of the keplerian elements: McCants